Temperature
18 19 19 19 20 19 19 18 18 19 19 20 20 20 21 21 21 21 20 20 21 21 21 20 20 20 19 19 19 18 18 18 18 17 17 17 17 16 16 16 16 15 15 15
19 19 19 19 20 20 20 20 19 20 20 20 21 21 21 21 21 20 20 21 21 21 21 21 20 20 20 19 19 19 18 18 18 17 17 17 17 16 16 16 16 15 15 15
18 19 19 19 20 20 20 20 20 20 20 20 20 20 21 21 21 21 21 21 21 21 21 21 21 20 20 19 19 18 18 18 18 17 17 17 16 16 16 16 15 15 15 15
17 18 19 19 20 21 21 21 21 21 20 21 21 22 22 22 22 22 22 22 22 22 21 21 21 20 20 19 19 18 18 18 18 17 17 17 16 16 16 16 15 15 15 14
16 17 18 20 20 21 20 20 20 20 21 21 22 21 21 22 23 23 23 23 22 22 22 21 21 20 20 19 19 19 18 18 18 17 17 17 16 16 16 15 15 15 15 14
16 18 18 19 21 21 20 20 21 21 20 21 21 18 19 22 22 23 23 22 22 22 21 21 21 20 20 19 19 19 19 18 18 17 17 17 16 16 16 15 15 15 14 14
16 17 17 19 20 21 19 19 21 22 22 21 20 20 22 22 22 23 22 22 22 22 21 21 21 20 20 19 19 19 19 18 18 17 17 16 16 16 15 15 15 14 14 14
15 17 18 20 20 19 19 21 21 22 22 22 22 22 22 22 22 22 22 22 22 21 21 21 20 20 20 19 19 19 18 18 17 17 16 16 16 15 15 15 14 14 14 14
17 17 19 20 20 22 22 21 22 22 22 22 22 22 22 22 22 22 21 21 21 21 21 20 20 20 20 19 19 18 18 18 17 17 16 16 16 15 15 14 14 14 14 14
16 17 18 20 21 21 21 22 22 22 21 21 21 21 21 21 21 21 21 21 20 20 20 20 20 20 19 19 19 18 18 17 17 16 16 16 15 15 15 14 14 14 14 14
16 17 18 19 20 21 21 21 21 21 21 21 21 21 21 21 20 20 20 20 20 20 20 20 19 19 19 19 18 18 17 17 17 16 16 15 15 15 15 15 14 14 14 14
16 17 17 19 20 20 20 20 20 20 20 20 20 20 20 20 20 20 19 19 19 19 19 19 19 19 18 18 18 17 17 17 16 16 16 15 15 14 14 14 14 13 13 13
19 19 19 19 19 20 20 20 20 20 20 19 19 19 19 19 19 19 19 19 19 18 18 18 18 18 18 17 17 17 17 16 16 16 15 15 15 14 14 14 13 13 13 12
19 19 18 18 19 19 19 19 19 19 19 19 19 19 18 18 18 18 18 18 18 18 18 18 18 17 17 17 17 16 16 16 16 16 15 15 14 14 14 14 13 13 13 12
18 18 18 18 18 18 18 18 18 18 18 18 18 18 18 18 17 17 17 17 17 17 17 17 17 17 16 16 16 16 16 15 15 15 15 14 14 14 14 13 13 13 13 12
17 17 17 17 17 17 17 17 17 17 17 17 17 17 17 17 17 17 17 17 16 16 16 16 16 16 16 16 16 15 15 15 15 14 14 14 13 13 13 13 12 12 12 12
16 16 16 16 16 16 16 16 16 16 16 16 16 16 16 16 16 16 16 16 16 16 16 16 16 15 15 15 15 15 15 14 14 14 13 13 13 13 12 12 12 12 12 12
16 16 16 16 15 15 15 15 15 15 15 15 15 15 15 15 15 15 15 15 15 15 15 15 15 15 15 15 14 14 14 14 13 13 13 13 12 12 12 12 12 11 11 11
15 15 15 15 15 15 14 14 14 14 14 14 14 14 14 14 14 14 14 14 14 14 14 14 14 14 14 14 14 13 13 13 13 13 12 12 12 12 11 11 11 11 11 10
14 14 14 14 14 14 14 14 13 13 13 13 13 13 13 13 13 13 13 13 13 13 13 13 13 13 13 13 13 13 12 12 12 12 12 11 11 11 11 10 10 10 10 10
13 13 13 13 13 13 13 12 12 12 12 12 12 12 12 12 12 12 12 12 12 12 12 12 12 12 12 12 12 12 12 11 11 11 11 11 10 10 10 10 9 9 9 9
12 12 12 12 12 12 11 11 11 11 11 11 11 11 11 11 11 11 11 10 10 11 11 11 11 11 11 11 11 11 11 11 10 10 10 10 9 9 9 9 9 8 8 8
11 11 11 11 11 11 11 10 10 10 10 10 10 10 10 10 10 10 9 9 9 9 9 10 10 10 10 10 10 10 10 10 10 9 9 9 9 8 8 8 8 8 8 7
10 10 10 10 10 10 10 9 9 9 9 9 9 9 9 9 9 8 8 8 8 8 8 9 9 9 9 9 9 9 9 9 9 8 8 8 8 8 8 7 7 7 7 7
9 9 9 9 9 9 8 8 8 8 8 8 8 8 8 8 8 8 8 8 7 7 8 8 8 8 8 8 8 8 8 8 8 8 7 7 7 7 7 7 7 6 6 6
8 8 8 8 8 8 7 7 7 7 7 7 7 7 7 7 7 7 7 7 7 7 7 7 7 7 7 7 7 7 7 7 7 7 7 7 7 6 6 6 6 6 6 6
7 7 7 7 7 7 7 6 6 6 6 6 6 6 6 6 6 6 6 6 6 6 6 6 6 6 6 6 6 6 6 6 6 6 6 6 6 6 6 5 5 5 5 5
Wind_Speed
6 5 5 6 7 9 9 8 7 7 7 9 7 7 8 9 9 10 11 11 13 13 12 12 12 11 11 10 9 10 10 9 9 7 7 7 7 6 6 6 6 6 5 4
2 5 5 6 8 9 9 8 8 7 8 8 6 4 6 8 11 12 12 13 14 13 13 13 14 13 12 11 10 10 11 10 8 8 7 7 7 7 6 6 5 5 5 5
3 4 0 4 8 9 8 7 7 8 9 4 3 6 9 10 12 13 14 14 14 14 14 14 14 14 14 13 11 11 11 10 9 9 9 8 8 7 7 6 5 5 5 5
1 2 3 7 4 6 7 6 6 6 6 7 7 6 7 8 11 12 12 13 14 13 13 12 11 11 11 11 12 11 10 10 10 10 9 8 7 7 6 5 5 5 4 5
3 2 5 6 4 3 4 3 3 5 4 4 3 2 2 4 8 12 13 12 12 13 12 12 12 13 12 12 11 11 11 11 11 11 10 9 9 7 5 5 5 4 4 5
4 3 4 6 6 2 4 2 4 4 4 3 4 3 5 5 5 7 7 8 9 9 9 11 11 13 13 13 12 13 13 12 11 11 11 11 10 7 5 5 5 5 4 4
4 4 6 7 5 3 4 5 4 3 4 5 5 6 5 4 4 5 6 7 8 9 10 11 12 13 14 13 14 13 11 10 10 10 10 10 8 6 6 6 6 5 4 3
5 4 6 5 2 4 6 4 2 3 4 5 4 3 3 3 3 3 4 5 7 9 9 8 11 14 13 14 12 10 11 11 10 10 9 8 8 7 6 7 6 5 4 3
7 7 5 3 5 4 5 4 3 3 3 5 4 2 3 3 3 3 4 5 6 7 7 7 10 13 14 12 10 12 12 11 10 10 8 9 9 9 6 6 6 5 5 5
2 3 2 0 2 3 4 4 3 4 4 4 4 3 3 3 3 2 3 4 5 6 7 6 7 9 10 9 12 13 12 11 10 10 9 8 8 8 8 8 7 7 7 6
1 2 2 4 1 2 3 4 5 4 4 4 5 3 3 3 2 2 3 3 4 6 7 7 7 7 7 9 12 12 11 10 10 9 10 9 8 8 9 9 10 10 8 8
4 5 4 3 2 2 5 4 4 4 4 4 4 3 3 2 2 2 2 2 3 4 4 5 6 6 7 9 12 12 10 9 8 8 8 7 7 5 7 7 10 12 11 10
4 4 4 2 1 2 4 4 4 4 4 3 3 3 3 2 1 2 2 3 3 4 4 4 5 6 7 9 10 12 11 10 8 8 8 8 8 8 6 4 6 9 11 11
3 4 3 2 1 2 3 4 4 4 4 3 3 3 3 3 2 2 2 3 2 3 3 4 4 5 6 8 9 10 9 10 9 9 9 9 9 8 8 7 6 5 7 11
2 3 4 3 3 3 4 5 6 5 4 3 3 3 3 2 2 1 1 1 2 2 2 3 3 4 4 7 9 9 8 7 7 7 7 7 7 7 6 7 7 5 4 5
3 5 5 5 4 3 4 4 4 2 2 2 2 2 1 2 2 1 2 2 3 2 2 3 3 3 4 6 7 7 6 8 8 6 6 6 6 7 7 7 7 6 7 7
5 4 3 3 2 1 1 2 3 2 1 1 1 1 2 3 4 3 2 1 2 1 1 2 2 2 3 5 6 5 5 6 8 7 6 7 7 8 8 7 7 8 8 8
6 6 6 6 4 3 2 2 2 2 1 1 2 3 3 3 2 1 2 2 3 3 3 1 0 0 1 3 4 4 4 5 6 6 6 6 6 7 7 7 8 8 6 6
4 4 4 4 4 4 3 2 2 1 2 2 3 2 2 2 1 1 2 3 2 1 3 3 2 1 0 2 3 3 4 4 5 5 6 7 7 6 6 6 6 7 6 5
4 4 4 4 4 4 3 2 3 3 3 3 4 4 3 2 2 2 3 2 1 2 2 2 2 1 1 1 2 2 4 4 5 5 5 5 6 6 6 6 6 6 6 6
5 5 5 5 4 4 3 3 4 4 3 4 4 3 2 2 2 2 3 2 4 2 2 2 2 1 2 2 1 2 3 4 4 5 5 5 5 6 6 6 6 7 7 6
5 5 5 5 5 4 3 3 4 4 4 4 4 4 4 3 3 3 2 1 3 3 2 2 2 3 4 3 1 2 3 3 4 4 5 5 5 6 6 6 6 6 6 6
4 5 5 5 4 4 4 4 4 4 4 3 3 3 2 1 1 1 2 3 2 3 3 2 4 6 6 3 2 2 3 3 4 4 5 5 6 6 6 7 6 6 6 6
5 5 4 4 5 6 4 3 3 3 3 2 2 2 2 2 2 2 1 3 4 4 3 4 6 6 5 2 2 2 3 3 4 4 4 4 5 5 5 5 6 6 6 6
4 4 4 5 4 3 2 2 3 3 3 3 3 2 2 0 1 2 2 3 4 4 3 5 7 7 4 3 2 3 3 3 4 4 4 4 5 5 5 5 5 5 5 6
3 3 3 2 2 1 1 2 2 1 2 2 2 2 2 2 2 2 2 3 3 4 4 3 4 5 4 3 3 3 3 4 4 4 4 5 5 5 5 5 6 5 5 5
3 3 2 2 2 1 2 2 1 0 0 0 1 2 2 2 2 2 2 2 2 3 3 3 3 3 3 3 4 4 4 4 4 4 4 4 4 5 5 6 5 5 5 5
Wind_Direction
218 223 204 221 223 210 200 201 203 233 237 247 234 209 198 187 175 171 176 180 181 184 186 183 179 178 177 176 172 167 164 166 174 169 158 152 148 145 139 135 136 131 119 111
266 241 232 247 239 226 222 218 221 241 256 245 219 195 186 180 176 179 185 189 188 188 186 186 185 182 179 178 176 168 171 175 169 159 155 155 153 145 136 131 131 127 127 127
270 291 89 264 235 217 219 216 199 220 235 237 209 196 196 190 185 190 191 191 191 192 192 192 190 184 182 180 172 171 174 172 168 165 162 162 157 146 144 144 138 132 133 129
209 13 243 250 246 213 213 235 215 218 228 207 205 205 204 192 189 197 196 192 193 192 192 191 184 178 174 168 170 173 173 173 172 166 164 160 156 157 155 149 147 148 149 148
141 209 283 298 290 202 175 273 244 204 221 210 174 95 329 231 201 200 194 192 193 191 186 181 179 174 167 170 172 173 177 178 175 169 165 163 167 169 162 152 152 155 156 154
140 166 237 260 269 246 115 325 290 189 186 186 128 141 246 245 208 204 191 186 184 176 167 174 178 168 168 174 176 185 185 181 175 171 170 173 174 169 161 156 160 157 157 164
166 199 255 255 270 88 126 227 262 182 169 159 166 197 219 205 189 188 175 174 169 164 173 181 172 166 173 178 190 191 177 168 168 171 173 172 166 161 156 154 152 157 163 175
164 186 250 255 144 164 202 213 197 143 134 134 161 184 168 147 154 155 155 154 161 166 176 174 168 170 178 190 190 168 161 165 169 170 173 168 160 161 160 157 159 168 171 190
183 208 235 207 185 203 159 148 159 133 130 127 125 137 145 143 146 144 150 153 158 165 167 167 173 176 185 191 167 160 164 170 172 171 172 165 167 169 165 168 174 185 186 200
163 275 272 278 101 109 129 133 138 133 126 109 115 120 126 132 137 135 138 148 152 153 161 176 181 184 189 172 162 164 171 174 172 173 174 173 176 178 179 185 189 194 199 208
165 265 0 1 11 129 108 104 97 91 92 104 113 111 129 137 158 164 158 155 151 164 177 187 183 183 173 163 161 165 171 174 176 179 180 184 188 193 194 201 197 196 205 203
207 224 180 223 254 122 104 104 109 97 71 66 98 116 113 126 152 154 155 149 151 163 174 183 175 175 171 166 166 167 172 178 182 182 183 185 188 203 222 213 213 211 208 203
188 194 172 184 121 103 116 124 113 104 105 86 72 98 109 111 122 129 134 148 174 182 181 176 173 176 176 171 171 175 181 184 184 185 186 188 189 194 210 237 233 222 217 211
139 112 100 117 144 117 111 114 101 82 76 85 82 82 91 93 91 117 166 195 185 165 165 167 171 189 186 172 174 181 184 186 186 191 192 193 197 201 201 202 212 233 233 225
117 129 152 142 101 85 88 89 81 64 52 44 53 70 86 103 128 169 179 130 115 124 155 163 175 205 187 173 177 183 184 187 189 190 192 195 196 197 202 207 213 219 223 232
131 101 108 104 101 91 83 90 95 79 65 56 44 44 71 93 84 76 79 110 119 149 190 180 192 204 176 173 179 185 192 190 183 185 190 194 195 198 204 210 215 218 223 224
135 134 131 125 120 108 111 132 139 139 110 93 60 64 74 72 57 42 33 51 122 148 170 178 208 204 173 176 182 191 192 194 188 188 196 200 201 206 209 211 217 224 229 223
159 164 163 158 155 145 124 111 120 119 127 128 78 76 82 91 86 36 21 53 62 38 9 338 318 139 177 186 190 196 195 196 198 201 202 203 205 208 208 213 220 225 234 226
123 137 139 140 142 137 128 118 110 97 89 91 90 82 69 78 89 69 62 75 79 17 322 328 17 44 223 223 195 194 198 201 204 207 208 207 207 209 210 214 221 225 225 222
107 111 112 108 100 104 102 95 90 76 65 77 82 73 58 40 52 69 72 64 310 268 287 336 8 13 307 258 213 203 204 207 211 213 212 211 212 216 217 219 221 224 226 225
111 106 103 101 89 79 85 95 93 77 57 70 86 86 68 36 38 61 73 13 319 322 341 359 1 324 308 307 277 235 219 216 217 217 217 218 220 223 224 224 227 229 231 233
110 106 100 98 96 80 65 77 87 80 70 67 71 75 67 47 38 37 22 284 299 324 344 338 323 311 314 318 290 255 238 229 225 222 221 222 223 227 230 231 232 233 233 233
107 103 99 97 99 92 68 65 73 79 76 74 74 72 69 46 48 63 343 317 321 332 336 310 310 319 324 323 298 271 254 241 234 230 230 229 228 229 232 233 234 234 234 234
99 94 92 91 89 83 70 49 54 67 69 61 65 80 80 49 2 337 281 307 334 342 334 320 326 334 338 330 307 289 272 256 245 239 235 234 234 235 235 234 235 236 235 235
106 100 98 94 87 87 86 73 64 59 56 44 28 19 15 47 277 304 318 324 336 349 345 344 352 349 342 322 308 296 286 272 260 247 236 235 236 237 238 237 236 237 237 238
115 117 118 119 127 127 113 97 86 73 63 31 2 357 355 351 345 333 331 336 343 343 340 334 336 339 333 319 307 296 288 286 281 265 250 244 242 241 242 241 241 240 241 241
98 100 98 85 77 101 112 115 119 120 142 161 315 321 330 338 340 334 330 331 331 328 325 324 324 324 322 317 311 304 297 290 283 273 263 256 253 250 248 246 246 250 254 254
Height
1517 1514 1514 1516 1515 1516 1521 1523 1528 1522 1516 1508 1503 1503 1503 1505 1508 1512 1515 1518 1521 1524 1528 1532 1535 1539 1543 1546 1549 1552 1555 1557 1560 1562 1564 1565 1567 1567 1568 1569 1570 1570 1571 1571
1516 1512 1512 1513 1511 1511 1512 1513 1515 1513 1510 1500 1500 1501 1502 1504 1506 1509 1511 1514 1518 1521 1525 1528 1531 1535 1539 1543 1546 1549 1552 1555 1558 1560 1562 1564 1565 1566 1567 1568 1568 1569 1570 1570
1523 1514 1513 1518 1507 1506 1506 1504 1506 1510 1504 1498 1499 1499 1500 1501 1503 1505 1508 1511 1514 1517 1520 1524 1528 1531 1535 1539 1543 1546 1549 1552 1555 1557 1560 1561 1563 1564 1565 1566 1567 1567 1568 1569
1523 1520 1526 1511 1496 1496 1498 1498 1497 1496 1495 1495 1495 1496 1497 1498 1499 1502 1504 1507 1510 1513 1517 1521 1525 1529 1533 1537 1540 1543 1546 1549 1552 1554 1557 1559 1561 1562 1563 1564 1565 1566 1566 1567
1525 1526 1519 1504 1495 1494 1498 1499 1493 1493 1493 1493 1494 1496 1497 1497 1498 1499 1501 1504 1507 1510 1513 1518 1522 1526 1530 1533 1536 1539 1542 1545 1548 1551 1553 1556 1557 1559 1560 1562 1563 1563 1564 1565
1522 1523 1524 1506 1492 1490 1494 1502 1492 1491 1491 1492 1493 1501 1499 1496 1497 1498 1500 1502 1505 1508 1511 1515 1518 1522 1526 1529 1532 1535 1538 1541 1545 1548 1550 1552 1554 1556 1558 1559 1560 1561 1562 1562
1518 1521 1513 1495 1490 1491 1507 1504 1492 1490 1490 1491 1492 1494 1495 1495 1496 1497 1498 1500 1503 1505 1508 1511 1515 1519 1522 1525 1527 1531 1535 1539 1542 1544 1547 1549 1551 1553 1555 1556 1557 1558 1559 1560
1515 1519 1513 1489 1489 1494 1495 1490 1490 1489 1489 1490 1491 1492 1493 1493 1494 1495 1497 1499 1501 1503 1506 1509 1512 1515 1518 1521 1524 1529 1532 1535 1538 1541 1544 1546 1548 1550 1552 1553 1554 1555 1556 1556
1501 1502 1490 1486 1487 1487 1488 1489 1489 1489 1490 1490 1490 1491 1492 1493 1494 1495 1496 1498 1500 1502 1504 1507 1509 1512 1515 1518 1522 1525 1529 1532 1535 1538 1540 1542 1544 1546 1548 1549 1550 1551 1552 1553
1494 1492 1487 1486 1486 1487 1487 1488 1488 1489 1489 1489 1490 1490 1491 1492 1493 1494 1495 1496 1498 1500 1503 1505 1507 1509 1512 1515 1519 1522 1525 1528 1531 1533 1536 1538 1540 1542 1543 1544 1546 1547 1548 1548
1492 1489 1487 1486 1486 1487 1487 1487 1488 1488 1489 1489 1489 1490 1491 1492 1493 1493 1494 1496 1497 1498 1500 1502 1505 1507 1510 1512 1515 1518 1521 1524 1527 1529 1531 1534 1535 1537 1539 1540 1542 1543 1544 1545
1491 1486 1487 1487 1487 1487 1486 1487 1488 1488 1488 1489 1489 1490 1490 1491 1492 1493 1494 1495 1496 1497 1499 1501 1503 1505 1507 1509 1512 1515 1517 1519 1522 1524 1527 1529 1531 1533 1535 1537 1538 1539 1540 1541
1482 1484 1484 1485 1486 1486 1486 1487 1487 1488 1488 1488 1489 1489 1490 1490 1491 1492 1493 1494 1494 1496 1497 1499 1500 1502 1504 1506 1509 1511 1513 1515 1517 1520 1522 1524 1526 1527 1529 1531 1532 1533 1534 1535
1481 1482 1483 1484 1485 1485 1486 1486 1486 1487 1487 1488 1488 1488 1489 1489 1490 1491 1491 1492 1493 1494 1495 1497 1498 1500 1502 1504 1506 1507 1509 1511 1513 1515 1516 1518 1520 1522 1523 1525 1526 1526 1528 1529
1481 1481 1482 1483 1484 1484 1484 1484 1485 1485 1486 1487 1487 1487 1487 1488 1488 1489 1490 1491 1492 1493 1494 1495 1496 1497 1499 1500 1502 1503 1505 1507 1508 1510 1512 1513 1515 1516 1518 1519 1520 1521 1522 1523
1479 1480 1480 1481 1482 1483 1483 1483 1484 1485 1485 1486 1486 1486 1486 1487 1487 1488 1488 1489 1490 1491 1492 1493 1493 1495 1496 1497 1498 1500 1501 1502 1504 1505 1506 1508 1509 1510 1511 1512 1513 1514 1515 1516
1476 1477 1478 1479 1480 1481 1482 1482 1483 1484 1484 1484 1485 1485 1485 1485 1485 1486 1487 1487 1488 1489 1490 1490 1491 1492 1493 1494 1495 1495 1496 1498 1499 1500 1501 1502 1503 1504 1505 1506 1507 1507 1508 1509
1473 1475 1476 1477 1478 1479 1480 1481 1482 1482 1483 1483 1484 1484 1483 1483 1484 1484 1485 1485 1486 1487 1487 1488 1488 1489 1489 1490 1491 1491 1492 1493 1493 1494 1495 1496 1497 1498 1499 1500 1500 1501 1501 1503
1471 1473 1474 1476 1477 1477 1478 1479 1480 1480 1481 1481 1482 1482 1482 1482 1482 1483 1483 1483 1484 1484 1484 1485 1485 1486 1486 1486 1487 1487 1487 1488 1488 1489 1489 1490 1491 1491 1492 1493 1493 1494 1495 1495
1470 1471 1472 1473 1474 1475 1476 1477 1478 1478 1479 1479 1479 1480 1480 1480 1481 1481 1481 1481 1482 1482 1482 1482 1482 1482 1482 1482 1482 1482 1482 1483 1483 1483 1484 1484 1484 1485 1485 1486 1487 1487 1488 1488
1468 1469 1470 1472 1473 1474 1474 1475 1476 1476 1477 1478 1478 1478 1478 1478 1479 1479 1478 1478 1479 1479 1479 1479 1478 1478 1478 1478 1478 1477 1477 1477 1477 1478 1478 1478 1478 1479 1479 1479 1479 1480 1480 1480
1466 1467 1469 1470 1471 1472 1473 1474 1475 1475 1475 1476 1476 1476 1476 1476 1476 1476 1476 1477 1476 1476 1475 1475 1474 1474 1474 1473 1473 1473 1472 1472 1472 1472 1472 1472 1472 1472 1472 1472 1472 1473 1473 1473
1465 1466 1468 1469 1470 1471 1472 1473 1473 1474 1474 1474 1474 1474 1474 1474 1474 1474 1473 1474 1473 1473 1472 1471 1471 1470 1470 1469 1468 1468 1467 1467 1467 1466 1466 1466 1466 1466 1466 1466 1466 1466 1466 1466
1464 1466 1467 1468 1469 1470 1471 1471 1472 1472 1473 1473 1473 1473 1473 1472 1472 1472 1472 1471 1470 1469 1469 1468 1467 1466 1465 1464 1463 1463 1462 1462 1461 1461 1460 1460 1460 1460 1460 1459 1459 1459 1459 1458
1464 1465 1466 1467 1468 1469 1470 1470 1470 1471 1471 1471 1471 1471 1471 1471 1470 1469 1469 1468 1467 1466 1465 1464 1463 1462 1461 1460 1459 1458 1457 1456 1456 1455 1455 1454 1454 1453 1453 1452 1452 1452 1451 1451
1463 1464 1466 1467 1467 1468 1468 1469 1469 1469 1469 1469 1469 1469 1468 1468 1467 1467 1466 1465 1464 1463 1462 1460 1459 1458 1456 1455 1454 1453 1452 1451 1450 1450 1449 1448 1447 1447 1446 1446 1445 1445 1444 1444
1462 1463 1464 1465 1466 1467 1467 1467 1467 1467 1467 1467 1466 1466 1466 1465 1464 1463 1462 1461 1460 1459 1458 1457 1455 1454 1452 1451 1450 1448 1447 1446 1445 1444 1443 1442 1441 1441 1440 1439 1438 1438 1437 1436